Lehigh Valley, PA

6:30 AM EDT on August 29, 2016 (GMT -0400)
Lehigh Valley International

Weather History for KABE - May, 2012

Change the Weather History Date:

Monday, May 7, 2012

  Actual Average Record
Temperature  
Mean Temperature 59 °F 57 °F  
Max Temperature 63 °F 69 °F 94 °F (1939)
Min Temperature 54 °F 45 °F 32 °F (1970)
Degree Days  
Heating Degree Days 6 8  
Month to date heating degree days 26 65  
Since 1 July heating degree days 4457 5635  
Cooling Degree Days 0 1  
Month to date cooling degree days 7 1  
Year to date cooling degree days 16 6  
Growing Degree Days 8 (Base 50)    
Moisture  
Dew Point 49 °F    
Average Humidity 75    
Maximum Humidity 93    
Minimum Humidity 56    
Precipitation  
Precipitation 0.06 in 0.13 in 1.70 in (1942)
Month to date precipitation 0.73 0.86  
Year to date precipitation 8.72 13.54  
Snow  
Snow 0.00 in 0.00 in 0.00 in ()
Month to date snowfall 0.0 0.0  
Since 1 July snowfall 12.0 32.9  
Snow Depth 0.00 in    
Sea Level Pressure  
Sea Level Pressure 30.09 in    
Wind  
Wind Speed 5 mph (South)    
Max Wind Speed 13 mph    
Max Gust Speed 21 mph    
Visibility 10 miles    
Events Rain    
T = Trace of Precipitation, MM = Missing Value Source: NWS Daily Summary

Daily Weather History Graph

Daily Weather History Graph

Search for Another Location

Airport or City:

Trip Planner

Search our weather history database for the weather conditions in past years. The results will help you decide how hot, cold, wet, or windy it might be!

Date:

Astronomy

May. 07, 2012 Rise Set
Actual Time 5:52 AM EDT 8:04 PM EDT
Civil Twilight 5:22 AM EDT 8:34 PM EDT
Nautical Twilight 4:45 AM EDT 9:12 PM EDT
Astronomical Twilight 4:04 AM EDT 9:53 PM EDT
Moon 10:14 PM EDT (5/7) 6:55 AM EDT (5/7)
Length of Visible Light 15h 12m
Length of Day
14h 11m
Waning Gibbous, 97% of the Moon is Illuminated
May 7
Waning Gibbous
May 12
Last Quarter
May 20
New
May 28
First Quarter
Jun 4
Full

Hourly Weather History & Observations

Time (EDT) Temp. Dew Point Humidity Pressure Visibility Wind Dir Wind Speed Gust Speed Precip Events Conditions
12:21 AM 57.2 °F 50.0 °F 77% 30.08 in 10.0 mi Calm Calm - N/A   Mostly Cloudy
12:51 AM 57.9 °F 48.0 °F 70% 30.09 in 10.0 mi SE 5.8 mph - N/A   Overcast
1:51 AM 57.0 °F 48.9 °F 74% 30.10 in 10.0 mi SW 4.6 mph - N/A   Overcast
2:27 AM 57.2 °F 50.0 °F 77% 30.08 in 10.0 mi South 4.6 mph - N/A   Scattered Clouds
2:51 AM 55.0 °F 48.9 °F 80% 30.09 in 10.0 mi South 4.6 mph - N/A   Scattered Clouds
3:01 AM 55.4 °F 48.2 °F 77% 30.09 in 10.0 mi Calm Calm - N/A   Mostly Cloudy
3:09 AM 55.4 °F 48.2 °F 77% 30.09 in 10.0 mi South 4.6 mph - N/A   Scattered Clouds
3:16 AM 55.4 °F 48.2 °F 77% 30.09 in 10.0 mi South 3.5 mph - N/A   Mostly Cloudy
3:51 AM 55.9 °F 48.0 °F 75% 30.08 in 10.0 mi South 5.8 mph - N/A   Overcast
4:51 AM 55.0 °F 46.0 °F 72% 30.09 in 10.0 mi South 3.5 mph - N/A   Mostly Cloudy
5:04 AM 55.4 °F 44.6 °F 67% 30.08 in 10.0 mi South 4.6 mph - N/A   Scattered Clouds
5:51 AM 55.0 °F 46.0 °F 72% 30.09 in 10.0 mi SSW 4.6 mph - N/A   Overcast
6:51 AM 55.9 °F 46.0 °F 69% 30.09 in 10.0 mi Calm Calm - N/A   Overcast
7:51 AM 57.0 °F 46.0 °F 67% 30.10 in 10.0 mi SE 3.5 mph - N/A   Overcast
8:02 AM 55.4 °F 46.4 °F 72% 30.10 in 10.0 mi SSE 4.6 mph - N/A   Overcast
8:51 AM 57.9 °F 46.0 °F 65% 30.12 in 10.0 mi South 5.8 mph - N/A   Overcast
9:51 AM 60.1 °F 46.9 °F 62% 30.12 in 10.0 mi SSE 5.8 mph - N/A   Overcast
10:51 AM 62.1 °F 46.9 °F 58% 30.12 in 10.0 mi South 6.9 mph - N/A   Overcast
11:51 AM 62.1 °F 46.9 °F 58% 30.12 in 10.0 mi South 6.9 mph - N/A   Overcast
12:51 PM 62.1 °F 48.0 °F 60% 30.12 in 10.0 mi South 9.2 mph - N/A   Overcast
1:51 PM 62.1 °F 50.0 °F 65% 30.12 in 10.0 mi South 5.8 mph - 0.00 in Rain Light Rain
2:51 PM 61.0 °F 53.1 °F 75% 30.11 in 10.0 mi SW 5.8 mph - 0.00 in Rain Light Rain
3:51 PM 60.1 °F 53.1 °F 78% 30.11 in 10.0 mi SW 10.4 mph - 0.00 in Rain Light Rain
4:30 PM 57.2 °F 53.6 °F 88% 30.10 in 6.0 mi SW 11.5 mph - 0.02 in Rain Light Rain
4:51 PM 55.9 °F 52.0 °F 87% 30.10 in 8.0 mi SSW 6.9 mph 18.4 mph 0.03 in Rain Light Rain
5:51 PM 55.9 °F 53.1 °F 90% 30.10 in 10.0 mi Calm Calm - 0.03 in Rain Light Rain
6:51 PM 57.0 °F 53.1 °F 87% 30.08 in 10.0 mi NE 3.5 mph - 0.00 in   Overcast
7:51 PM 57.9 °F 52.0 °F 81% 30.07 in 10.0 mi Calm Calm - N/A   Overcast
8:51 PM 57.0 °F 51.1 °F 81% 30.07 in 10.0 mi SSE 6.9 mph - N/A   Overcast
9:51 PM 55.9 °F 46.0 °F 69% 30.08 in 10.0 mi SSE 8.1 mph - N/A   Overcast
10:51 PM 55.9 °F 46.0 °F 69% 30.06 in 10.0 mi SSE 5.8 mph - N/A   Overcast
11:51 PM 57.0 °F 46.9 °F 69% 30.06 in 10.0 mi SSE 6.9 mph - N/A   Overcast